Hourly Weather Roundup
Issued by NWS Central Illinois

Home | Current Version | Previous Version | Text Only | Print | Product List | Glossary On
Versions: 1 2 3 4 5 6 7 8 9 10 11 12 13 14 15 16 17 18 19 20 21 22 23 24 25 26 27 28 29 30 31 32 33 34 35 36 37 38 39 40 41 42 43 44 45 46 47 48 49 50
000
NZUS43 KILX 260210
HWRILX

AREA WEATHER ROUNDUP
NATIONAL WEATHER SERVICE, LINCOLN IL
900 PM CDT FRI JUL 25 2014


CITY           SKY/WX    TMP DP  RH WIND       PRES   REMARKS
BLOOMINGTON    CLOUDY    66  59  78 SE9       29.96F
CHAMPAIGN      CLOUDY    66  62  87 E6        29.97F
DECATUR        CLOUDY    67  62  84 SE7       29.95S
FLORA          NOT AVBL
GALESBURG      CLOUDY    70  64  81 E7        29.89S
JACKSONVILLE   CLOUDY    72  64  77 SE8       29.91R
LACON          CLOUDY    67  60  77 SE10      29.92S
LAWRENCEVILLE  CLEAR     66  63  90 E5        29.97S
LITCHFIELD     CLEAR     67  63  85 E6        29.94R
$$


CITY           SKY/WX    TMP DP  RH WIND       PRES   REMARKS
LINCOLN        CLOUDY    70  62  76 SE3       29.91S
MACOMB         CLOUDY    70  63  79 SE8       29.89S
MATTOON        CLEAR     65  61  87 CALM      29.97R
MT CARMEL AP   CLEAR     68  63  83 CALM      29.97S
OLNEY-NOBLE AP PTCLDY    63  61  94 CALM      29.97R
PARIS          PTCLDY    63  61  94 CALM      30.00R
PEORIA         CLOUDY    71  61  70 E8        29.91S
PONTIAC        CLOUDY    70  63  78 SE5       29.95S
RANTOUL        MOCLDY    69  60  73 SE5       29.98S
ROBINSON       CLEAR     66  62  86 CALM      29.98R
SPRINGFIELD    CLOUDY    72  62  71 SE8       29.92S
TAYLORVILLE    CLEAR     66  61  82 E9        29.94S
$$

...REGIONAL REPORTS...


CITY           SKY/WX    TMP DP  RH WIND       PRES   REMARKS
CHICAGO O`HARE CLOUDY    72  57  59 SW9       29.93R
KANKAKEE       CLOUDY    69  61  76 S7        29.97R
MOLINE         CLOUDY    70  65  84 E10       29.87F
MOUNT VERNON     N/A     68  59  73 CALM      29.95R VSB 1/4
PITTSFIELD     CLEAR     71  64  80 E6        29.89R
QUINCY         PTCLDY    72  64  76 SE8       29.86R
ROCKFORD       CLOUDY    68  59  73 S9        29.94R
$$


CITY           SKY/WX    TMP DP  RH WIND       PRES   REMARKS
BURLINGTON     MOCLDY    73  63  70 SE8       29.85S
CEDAR RAPIDS   CLOUDY    72  66  81 SE9       29.82F
DES MOINES     PTCLDY    79  71  76 SE7       29.76F HX  82
KIRKSVILLE     CLEAR     74  68  81 E6        29.83S
OTTUMWA        PTCLDY    73  68  84 SE8       29.80F
ST LOUIS       PTCLDY    78  64  61 SE7       29.89R HX  80
$$


CITY           SKY/WX    TMP DP  RH WIND       PRES   REMARKS
TERRE HAUTE    CLEAR     65  60  84 CALM      29.99R
EVANSVILLE     PTCLDY    72  60  66 CALM      29.98R
INDIANAPOLIS   CLOUDY    70  59  68 SW5       29.99R
LAFAYETTE      CLOUDY    69  59  70 SW5       29.98R
MADISON        CLOUDY    70  61  73 S8        29.91R
MILWAUKEE      MOCLDY    70  59  68 SW8       29.91R
$$





USA.gov is the U.S. government's official web portal to all federal, state and local government web resources and services.